Location: Buffign�court
(47.8126°N, 6.0176°E)
Time: 15:08:45
(UTC+00:00)

Cosmos 1674 - Pass Details

Date: 16 June 2021
Orbit: 494 x 514 km, 82.5° (Epoch: 01 August)

Event Time Altitude Azimuth Distance (km) Brightness Sun altitude
Exits shadow 20:22:25 - 155° (SSE) 1,925 5.0 -6.5°
Reaches altitude 10° 20:23:02 10° 151° (SSE) 1,697 4.7 -6.6°
Maximum altitude 20:26:15 28° 91° (E) 959 3.7 -7.0°
Drops below altitude 10° 20:29:28 10° 31° (NNE) 1,704 5.6 -7.3°
Sets 20:31:46 0° 20° (NNE) 2,591 6.7 -7.6°
